www.pogodaiklimat.ru

Погода и климат >> Архив погоды >> Россия >> Саратовская область >> Маркс


ПОГОДА в Маркс

  • Прогноз погоды в Маркс
  • Монитор погоды в Маркс

АРХИВ ПОГОДЫ в Маркс

Время (UTC), дата Ветер
(напр.,м/с)
 
Видим.   Явления Облачность Т
(С)
Тd
(С)
f
(%)
Тe
(С)
Тes
(С)
Комфортность P
(гПа)
Po
(гПа)
Тmin
(С)
Tmax
(С)
R
(мм)
R24
(мм)
S
(см)
12 14.03 СЗ 4
{11}
50 км ясно -0.3 -5.6 67 -5 -3 1019.3 1015.3
15 14.03 СЗ 2 20 км ясно -1.7 -5.6 75 -5 -5 1021.2 1017.1 -0.0
18 14.03 СЗ 1 20 км ясно -4.1 -6.3 85 -6 -6 1023.4 1019.3
21 14.03 З 1 20 км ясно -7.0 -8.0 93 -9 -9 1024.2 1020.1
00 15.03 штиль 0 20 км ясно -8.9 -10.1 91 -9 -9 1024.1 1019.9
03 15.03 ЮЗ 1 20 км 3/0
[Ci fib]
-10.6 -11.2 95 -13 -13 1025.5 1021.3 -10.6 45
06 15.03 В 1 20 км 9/0
[Ac trans Ci fib]
-4.5 -7.4 80 -7 -4 1026.4 1022.3 -11.3
09 15.03 ЮВ 2 50 км 9/0
[Ci fib]
-1.7 -6.4 70 -5 +1 1025.8 1021.7
12 15.03 ЮВ 2 50 км 9/0
[Ci fib]
-0.2 -5.0 70 -4 -1 1024.4 1020.4
15 15.03 В 2 50 км 9/0
[Ac trans Ci fib]
-1.7 -4.9 79 -5 -5 1023.9 1019.8 -0.0
18 15.03 В 2 20 км 8/0
[Ac trans Ci fib]
-3.4 -5.5 85 -7 -7 1023.6 1019.5
21 15.03 В 3 20 км 10/10 300 м
[St]
-3.7 -5.3 89 -9 -9 1022.3 1018.2
00 16.03 В 2 20 км 10/0
[Ac und]
-3.6 -5.6 86 -8 -8 1021.2 1017.1
03 16.03 В 4 20 км 10/0
[Ac und]
-4.4 -6.3 87 -11 -11 1019.5 1015.4 -4.4 44
06 16.03 В 3 20 км 10/0
[As trans]
-2.9 -5.3 83 -8 -7 1018.6 1014.5 -4.4
09 16.03 ЮВ 3 20 км 10/0
[As trans]
-0.6 -3.9 78 -5 -3 1017.1 1013.1
12 16.03 ЮВ 3 5000 м слаб. снег 10/10 210 м
[Frnb Ns]
-0.9 -2.1 92 -6 -6 1015.3 1011.3
15 16.03 ЮВ 2 3000 м слаб. снег 10/10 210 м
[Frnb Ns]
-0.3 -1.2 94 -4 -4 1014.7 1010.7 -0.2 1
18 16.03 ЮВ 2 5000 м дымка {снег} 10/10 360 м
[St]
+0.3 -0.6 94 -3 -3 1014.6 1010.7
21 16.03 В 2 10 км 10/10 700 м
[Sc]
+0.1 -0.9 93 -4 -4 1014.2 1010.2
00 17.03 В 1 10 км 9/0
[Ac trans]
-0.4 -1.4 93 -3 -3 1013.5 1009.5
03 17.03 В 2 10 км 10/0
[Ac und]
+0.2 -0.8 93 -4 -4 1014.1 1010.1 -0.6 0.0 45
06 17.03 ЮВ 2 20 км 9/0
[Ac trans]
+1.4 -0.3 88 -2 0 1015.2 1011.2
09 17.03 В 3 20 км 10/0
[Ac und]
+2.3 -0.4 82 -2 0 1016.1 1012.1
12 17.03 В 3 20 км 9/0
[Ac trans]
+2.4 0.0 84 -2 -0 1017.0 1013.1
15 17.03 В 3 20 км 10/0
[Ac und]
+1.0 -0.2 92 -4 -4 1018.4 1014.4 +2.6
18 17.03 В 2 5000 м слаб. снег 10/10 210 м
[Frnb Ns]
+0.2 -0.9 92 -4 -4 1020.1 1016.1
21 17.03 В 2 5000 м слаб. снег 10/10 210 м
[Frnb Ns]
-0.1 -1.2 92 -4 -4 1021.0 1017.0
00 18.03 В 2 10 км в посл. час снег 10/10 720 м
[Sc]
-0.8 -1.7 94 -5 -5 1021.9 1017.9
03 18.03 В 2 10 км 10/0
[Ac und]
-1.3 -2.5 92 -5 -5 1023.3 1019.2 -1.3 2 45
06 18.03 СВ 2 50 км 9/9 700 м
[Sc]
-0.1 -2.2 86 -4 -3 1025.6 1021.5 -1.4
09 18.03 СВ 3 50 км 8/0
[Ac trans]
+2.9 -5.4 54 -1 +3 1025.9 1021.9
12 18.03 С 3 50 км ясно +2.5 -3.1 67 -1 +2 1026.7 1022.7
15 18.03 штиль 0 50 км ясно +1.5 -4.4 65 +1 +1 1027.4 1023.4 +3.9
18 18.03 штиль 0 50 км ясно -1.9 -4.6 82 -3 -3 1028.8 1024.7
21 18.03 СЗ 1 50 км ясно -3.7 -4.6 93 -6 -6 1029.2 1025.1
00 19.03 штиль 0 50 км ясно -5.1 -6.1 93 -6 -6 1029.3 1025.2
03 19.03 СЗ 1 50 км ясно -6.1 -7.3 91 -9 -9 1029.9 1025.8 -6.7 43
06 19.03 СЗ 1 50 км ясно -0.5 -4.9 72 -2 +3 1030.4 1026.3
09 19.03 СЗ 2 50 км ясно +4.3 -3.2 58 +2 +11 опасность
простуды
1029.9 1026.0
12 19.03 З 1 50 км 3/0
[Ci fib]
+6.2 -1.9 56 +6 +10 1029.5 1025.5
15 19.03 З 1 50 км ясно +3.2 -1.4 72 +2 +2 1029.7 1025.7 +6.8
18 19.03 З 1 20 км ясно -1.2 -2.7 90 -3 -3 1030.0 1025.9
21 19.03 З 1 20 км ясно -2.6 -3.8 91 -5 -5 1029.2 1025.1
00 20.03 З 1 20 км ясно -4.3 -5.2 93 -7 -7 1028.7 1024.6
03 20.03 З 1 20 км ясно -5.2 -6.1 93 -8 -8 1028.6 1024.5 -5.2 39
06 20.03 СЗ 2 20 км ясно -0.3 -3.1 81 -4 +1 1028.4 1024.3 -5.6
09 20.03 СЗ 2 50 км ясно +4.5 -3.1 58 +2 +11 опасность
простуды
1027.7 1023.8
12 20.03 ЮЗ 1 50 км ясно +8.2 -2.1 48 +8 +13 1026.6 1022.7
15 20.03 Ю 1 20 км ясно +2.7 -1.3 75 +1 +1 1025.6 1021.6 +8.4
18 20.03 ЮЗ 1 10 км ясно -0.7 -2.3 89 -3 -3 1025.6 1021.6
21 20.03 ЮЗ 1 10 км ясно -4.0 -5.1 92 -6 -6 1024.5 1020.4
00 21.03 З 1 10 км ясно -5.1 -6.0 93 -8 -8 1023.6 1019.5
03 21.03 ЮЗ 1 3000 м дымка 10/0
[Ac und]
-5.2 -6.1 93 -8 -8 1022.7 1018.5 -6.4 38
06 21.03 ЮЗ 2 2000 м дымка 9/0
[Ac trans]
-1.4 -2.7 91 -5 -3 1021.9 1017.9
09 21.03 Ю 2 5000 м дымка 10/0
[Ac und]
+1.8 -0.2 87 -2 +1 1020.9 1016.9

 

Местоположение метеостанции Маркс (Саратовская область, Россия): широта 51.70 долгота 46.73 высота над уровнем моря 29 м.

В архиве по умолчанию представлена погода в Маркс за последнюю неделю. Архивные данные за месяц целиком и за предыдущие месяцы, начиная с января 2011 года, Вы можете получить, выбрав интересующий диапазон дат из раскрывающегося списка и нажав кнопку "Ввод!".


*Определитесь, кто Вы:
робот инопланетянин человек

Внимание! Время в таблицах - всемирное. Для получения местного времени необходимо прибавить поправку, которая равна 4 ч.

Смотрите также архив погоды в соседних городах и на ближайших метеорологических станциях:

Погода в Саратове (Саратовская область, Россия) (50 км)
Погода в Саратове ЮВ (Саратовская область, Россия) (52 км)
Погода в Карабулаке (Саратовская область, Россия) (74 км)
Погода в Балаково (Саратовская область, Россия) (83 км)
Погода в Красном Куте (Саратовская область, Россия) (85 км)
Погода в Октябрьском Городке (Саратовская область, Россия) (89 км)
Погода в Петровске (Саратовская область, Россия) (112 км)
Погода в Ершове (Саратовская область, Россия) (115 км)
Погода в Сплавнухе (Саратовская область, Россия) (117 км)
Погода в Аткарске (Саратовская область, Россия) (118 км)

Пояснения к столбцам:

Ветер - указаны скорость ветра в м/с - средняя за 10 мин, порывы в срок и между сроками (в фигурных скобках) и направление, откуда дует ветер: С - северный, СВ - северо-восточный, В - восточный, ЮВ - юго-восточный, Ю - южный, ЮЗ - юго-западный, З - западный, СЗ - северо-западный.
Видимость - горизонтальная дальность видимости в метрах или километрах. При видимости от 1 до 10 км при отсутствии осадков обычно наблюдается дымка, при ухудшении видимости до 1 км и менее - туман. В сухую погоду видимость может ухудшаться дымом, пылью или мглою.
Явления - указаны атмосферные явления, наблюдавшиеся в срок или в последний час перед сроком; фигурными скобками обозначены явления, наблюдавшиеся между сроками (за 1-3 часа до срока); квадратными скобками обозначены град или гололедные отложения с указанием их диаметра в мм.
Облачность - указаны через наклонную черту общая и нижняя облачность в баллах и высота нижней границы облаков в метрах; квадратными скобками обозначены формы облаков: Ci - перистые, Cs - перисто-слоистые, Cc - перисто-кучевые, Ac - высококучевые, As - высокослоистые, Sc - слоисто-кучевые, Ns - слоисто-дождевые, Cu - кучевые, Cb - кучево-дождевые. Подробнее классификацию облаков см. в Атласе облаков (PDF).
T - Температура воздуха - температура, измеренная на высоте 2 м над землей.
Td - Температура точки росы - температура, при понижении до которой содержащийся в воздухе водяной пар достигнет насыщения.
f - Относительная влажность воздуха - влажноcть воздуха, измеренная на высоте 2 м над землей.
Te - Эффективная температура - температура, которую ощущает одетый по сезону человек в тени. Характеристика душности погоды. При расчете учитывается влияние влажности воздуха и скорости ветра на теплоощущения человека.
Tes - Эффективная температура на солнце - температура, которую ощущает человек, с поправкой на солнечный нагрев. Характеристика знойности погоды. Зависит от высоты солнца над горизонтом, облачности и скорости ветра. Ночью, в пасмурную погоду, а также при ветре 12 м/с и более поправка равна нулю.
P - Атмосферное давление - приведенное к уровню моря атмосферное давление.
Po - Атмосферное давление - измеренное на уровне метеостанции атмосферное давление.
Tmin - Минимальная температура - минимум температуры воздуха на высоте 2 м над землей.
Tmax - Максимальная температура - максимум температуры воздуха на высоте 2 м над землей.
R - Количество осадков - Количество выпавших осадков за период времени, мм. При наведении курсора мыши на число - период времени, за который выпало указанное количество осадков.
R24 - Количество осадков - Количество выпавших осадков за 24 часа, мм.
S - Снежный покров - Высота снежного покрова, см. При наведении курсора мыши на число - состояние снежного покрова и степень покрытия местности в баллах.